Location: Newark
(51.3318°N, 0.0053°E)
Time: 06:14:13
(UTC+00:00)

BlueWalker 3 - Pass Details

Date: 02 December 2022
Orbit: 499 x 517 km, 53.2° (Epoch: 28 January)

Event Time Altitude Azimuth Distance (km) Brightness Sun altitude
Rises 19:09:25 0° 286° (WNW) 2,629 6.7 -29.4°
Reaches altitude 10° 19:11:37 10° 287° (WNW) 1,737 5.5 -29.7°
Enters shadow 19:13:18 24° 288° (WNW) 1,086 4.2 -30.0°
